VE3FWM Weather Reports


time (UTC)temp
C
wind
direction
speed
KPH
gust
KPH
rain 1hr
cm
rain 24hr
cm
rain mn
cm
humidity
%
barometer
mb
20260505211519 10 298 1.6 11.3 0.00 0.00 0.00 73 1007.2
20260505210018 10 269 1.6 9.7 0.00 0.00 0.00 73 1007.1
20260505204516 10 244 3.2 14.5 0.00 0.00 0.00 74 1007.1
20260505203020 10 285 0.0 9.7 0.00 0.00 0.00 74 1007.0
20260505201527 10 304 1.6 14.5 0.00 0.00 0.00 72 1007.0
20260505200012 11 297 0.0 12.9 0.00 0.00 0.00 72 1006.6
20260505194506 11 311 1.6 16.1 0.00 0.00 0.00 69 1006.7
20260505193001 12 294 1.6 17.7 0.00 0.00 0.00 61 1006.3
20260505191611 13 273 4.8 30.6 0.00 0.00 0.00 53 1006.1
20260505190054 13 262 4.8 22.5 0.00 0.00 0.00 53 1005.6
20260505184552 14 234 1.6 17.7 0.00 0.00 0.00 51 1005.7
20260505183049 15 266 3.2 19.3 0.00 0.00 0.00 50 1005.3
20260505181549 15 259 4.8 17.7 0.00 0.00 0.00 51 1005.0
20260505180049 15 210 3.2 20.9 0.00 0.00 0.00 52 1004.7
20260505174545 15 318 3.2 19.3 0.00 0.00 0.00 51 1004.5
20260505173040 15 260 3.2 25.7 0.00 0.00 0.00 52 1004.3
20260505171543 16 287 3.2 27.4 0.00 0.00 0.00 53 1004.0
20260505170055 16 254 6.4 19.3 0.00 0.00 0.00 54 1003.8
20260505164538 16 256 4.8 16.1 0.00 0.00 0.00 56 1003.7
20260505163036 16 226 1.6 27.4 0.00 0.00 0.00 57 1003.7
20260505161532 15 270 4.8 22.5 0.00 0.00 0.00 60 1004.0
20260505153026 15 222 3.2 17.7 0.00 0.00 0.00 68 1002.9
20260505151524 15 196 4.8 24.1 0.00 0.00 0.00 71 1003.5
20260505124502 16 238 4.8 17.7 0.00 0.00 0.00 74 1000.3
20260505123059 15 248 3.2 19.3 0.00 0.00 0.00 74 999.8
20260505121625 15 245 3.2 12.9 0.00 0.00 0.00 74 999.5
20260505120056 15 236 3.2 19.3 0.00 0.00 0.00 75 999.7
20260505114552 15 200 3.2 14.5 0.00 0.00 0.00 75 999.8
20260505113048 15 243 4.8 12.9 0.00 0.00 0.00 75 999.6
20260505111546 15 209 4.8 16.1 0.00 0.00 0.00 75 999.2
20260505101540 15 204 3.2 17.7 0.00 0.00 0.00 74 998.5
20260505100036 15 181 3.2 16.1 0.00 0.00 0.00 73 998.5
20260505094536 15 218 4.8 24.1 0.00 0.00 0.00 73 998.2
20260505093040 15 162 4.8 12.9 0.00 0.00 0.00 73 998.1
20260505091532 15 199 3.2 12.9 0.00 0.00 0.00 73 998.3
20260505090048 15 200 4.8 16.1 0.00 0.00 0.00 74 998.1
20260505084530 15 231 1.6 14.5 0.00 0.00 0.00 73 998.1
20260505083030 15 208 4.8 9.7 0.00 0.00 0.00 73 998.0
20260505081531 15 205 3.2 16.1 0.00 0.00 0.00 73 998.4
20260505080024 15 194 4.8 16.1 0.00 0.00 0.00 72 998.5
20260505074523 16 202 4.8 17.7 0.00 0.00 0.00 71 998.5
20260505073027 16 223 3.2 22.5 0.00 0.00 0.00 71 998.6
20260505071520 16 224 4.8 12.9 0.00 0.00 0.00 69 998.7
20260505070018 16 226 4.8 16.1 0.00 0.00 0.00 69 998.6
20260505064517 16 259 3.2 17.7 0.00 0.00 0.00 68 998.5
20260505063014 16 203 6.4 19.3 0.00 0.00 0.00 68 998.8
20260505061511 16 212 4.8 19.3 0.00 0.00 0.00 68 998.9
20260505060022 16 201 4.8 22.5 0.00 0.00 0.00 67 999.1
20260505054509 16 225 4.8 19.3 0.00 0.00 0.00 66 999.3
20260505053005 16 229 3.2 16.1 0.00 0.00 0.00 65 999.4
20260505051506 16 207 3.2 17.7 0.00 0.00 0.00 65 999.3
20260505041556 17 220 1.6 17.7 0.00 0.00 0.00 65 999.3
20260505040055 17 200 3.2 16.1 0.00 0.00 0.00 64 999.2
20260505034552 17 242 4.8 20.9 0.00 0.00 0.00 62 999.4
20260505033110 17 224 4.8 20.9 0.00 0.00 0.00 60 999.6
20260505031550 17 206 3.2 17.7 0.00 0.00 0.00 58 999.7
20260505030049 17 168 1.6 19.3 0.00 0.00 0.00 56 999.8
20260505024547 17 202 3.2 14.5 0.00 0.00 0.00 54 1000.1
20260505023058 17 209 3.2 14.5 0.00 0.00 0.00 52 1000.1
20260505021547 17 184 4.8 12.9 0.00 0.00 0.00 51 1000.3
20260505020051 17 208 1.6 12.9 0.00 0.00 0.00 49 1000.5
20260505014546 18 192 4.8 17.7 0.00 0.00 0.00 47 1000.3
20260505013045 18 189 3.2 16.1 0.00 0.00 0.00 45 1000.3
20260505011547 18 179 3.2 12.9 0.00 0.00 0.00 44 1000.1
20260505010045 18 194 3.2 16.1 0.00 0.00 0.00 42 1000.1
20260505004549 18 182 4.8 17.7 0.00 0.00 0.00 41 1000.0
20260505003043 19 186 3.2 14.5 0.00 0.00 0.00 40 999.9
20260505001542 19 232 3.2 17.7 0.00 0.00 0.00 39 1000.1
20260505000044 20 209 3.2 17.7 0.00 0.00 0.00 38 1000.3
20260504234603 20 191 6.4 27.4 0.00 0.00 0.00 38 1000.6
20260504233038 20 238 4.8 22.5 0.00 0.00 0.00 37 1000.8
20260504231549 20 173 4.8 37.0 0.00 0.00 0.00 36 1000.6
20260504230037 21 171 3.2 46.7 0.00 0.00 0.00 38 1000.7
20260504224537 21 173 4.8 22.5 0.00 0.00 0.00 37 1000.9
20260504223038 21 192 6.4 25.7 0.00 0.00 0.00 36 1000.8
20260504221536 21 184 4.8 32.2 0.00 0.00 0.00 38 1000.8
20260504220035 21 149 9.7 25.7 0.00 0.00 0.00 38 1000.9
20260504214539 21 183 12.9 37.0 0.00 0.00 0.00 37 1000.9
20260504213033 22 179 8.0 30.6 0.00 0.00 0.00 35 1000.9